Regional Weather Roundup
Issued by NWS

Home | Current Version | Previous Version | Text Only | Print | Product List | Glossary On
Versions: 1 2 3 4 5 6 7 8 9 10 11 12 13 14 15 16 17 18 19 20 21 22 23 24 25 26 27 28 29 30 31 32 33 34 35 36 37 38 39 40 41 42 43 44 45 46 47 48 49 50
000
ASUS46 KLOX 232112
RWRCA

SOUTHERN CALIFORNIA WEATHER ROUNDUP
NATIONAL WEATHER SERVICE OXNARD CALIFORNIA
200 PM PDT WED JUL 23 2014

NOTE: "FAIR" INDICATES FEW OR NO CLOUDS BELOW 12,000 FEET WITH NO
SIGNIFICANT WEATHER AND/OR OBSTRUCTIONS TO VISIBILITY.

  -  STATIONS PRECEEDED BY AN ASTERISK (*) ARE NOT NWS OR FAA
     STATIONS AND ARE NOT SUBJECT TO NWS AND FAA QUALITY CONTROL.

CAZ041-042-087-232200-
LA AND ORANGE COUNTY COASTAL AREAS


CITY           SKY/WX    TMP DP  RH WIND       PRES   REMARKS
L.A. DOWNTOWN  SUNNY     87  55  33 VRB5      29.94F
L.A. AIRPORT   MOSUNNY   78  57  48 W18       29.96F
LONG BEACH     SUNNY     86  55  34 NW12      29.94F

CITY           SKY/WX    TMP DP  RH WIND       PRES   REMARKS
AVALON           N/A     73 N/A N/A MISG        N/A
FULLERTON      SUNNY     91  60  35 VRB7      29.92F HX  90
*GETTY CENTER    N/A     84  54  34 SW9G15      N/A
HAWTHORNE      SUNNY     81  55  40 W16G22    29.95F
*LEO CARRILLO    N/A     77  63  61 W15G26      N/A
*LOS ALAMITOS  SUNNY     87  62  41 SW9       29.94F
*REDONDO BEACH   N/A     76  62  61 CALM      29.95F
SANTA ANA      MOSUNNY   85  56  37 SW8       29.95F
STA MONICA APT SUNNY     80  56  43 W10G18    29.96F
TORRANCE       SUNNY     81  59  47 W17       29.96F
*UCLA            N/A     81  54  39 S5        29.92F

$$

CAZ547-548-048-232200-
LA COUNTY VALLEYS AND INLAND EMPIRE


CITY           SKY/WX    TMP DP  RH WIND       PRES   REMARKS
BURBANK        SUNNY     93  52  24 S9        29.94F HX  90
VAN NUYS       SUNNY    100  34  10 CALM      29.93F HX  94

CITY           SKY/WX    TMP DP  RH WIND       PRES   REMARKS
CORONA AIRPORT CLEAR     96  59  29 MISG      29.93F HX  95
CHINO          SUNNY     96  53  23 W13       29.94F HX  93
MARCH AFB      MOSUNNY   97  47  17 NW13      29.98F HX  93
*NORTHRIDGE      N/A     99  39  12 SW3         N/A  HX  94
ONTARIO        MOSUNNY   98  50  19 W10       29.95F HX  95
*PASADENA        N/A     93  63  36 CALM        N/A  HX  94
POMONA         SUNNY     91  50  24 W9        29.99F
RIVERSIDE      SUNNY     98  47  17 W9        29.94F HX  94
SAN BERNARDINO SUNNY     99  39  12 SW9       29.96  HX  94
*SAN GABRIEL     N/A     89  52  27 CALM      29.89F
*SAN RAFAEL HI   N/A     95  58  28 W6          N/A  HX  94
*SAUGUS          N/A    100  46  15 N7          N/A  HX  96
*WHITEMAN AP   SUNNY     97  46  17 SE9       29.98F HX  93
*WHITTIER HILL   N/A     92  62  36 SW12        N/A  HX  92
*WOODLAND HILL   N/A    100  41  13 NW6         N/A  HX  96

$$

CAZ054-055-232200-
LA AND SAN BERNARDINO COUNTY MOUNTAINS


CITY           SKY/WX    TMP DP  RH WIND       PRES   REMARKS
*BIG BEAR AIRP CLEAR     82  27  13 E5G23     30.36S
*CHILAO          N/A     89  34  14 SW9         N/A
MT WILSON NWS    N/A     86  41  20 SW7         N/A
SANDBERG       SUNNY     86  35  16 N14G25    30.21F
*WARM SPRINGS    N/A     93  43  17 S3          N/A

$$

CAZ028-029-059-060-099-232200-
ANTELOPE VALLEY AND SURROUNDING AREAS


CITY           SKY/WX    TMP DP  RH WIND       PRES   REMARKS
LANCASTER      SUNNY    101  33   9 W15       30.00F HX  95
PALMDALE       SUNNY    100  22   6 SW16G26   30.02F HX  93
*POPPY PARK      N/A    100  42  13 W10G22      N/A  HX  95

CITY           SKY/WX    TMP DP  RH WIND       PRES   REMARKS
29 PALMS       MOSUNNY  104  24   6 VRB6      30.02F HX  96
BARSTOW/DAGGET SUNNY    104  32   8 NW15      29.96F HX  97
BISHOP         SUNNY     98  20   6 S17G23    30.04F HX  91
CHINA LAKE     SUNNY    106  23   5 SW13G20   29.94F HX  98
EDWARDS AFB    MOSUNNY  101  27   7 W14       29.97F HX  94
MOJAVE         FAIR      95  32  11 W15G21    30.04F HX  90
NEEDLES        MOSUNNY  113  28   5 S10       29.83F HX 105
VICTORVILLE    MOSUNNY   99  36  11 SW5       30.04F HX  93

$$

CAZ039-040-232200-
VENTURA AND SANTA BARBARA COUNTY COAST


CITY           SKY/WX    TMP DP  RH WIND       PRES   REMARKS
CAMARILLO      SUNNY     82  59  45 W10       29.95F
NWS OXNARD       N/A     79  61  53 SW12      29.95F
OXNARD AIRPORT SUNNY     76  61  59 W15       29.96F
*POINT MUGU    SUNNY     76  62  62 W14       29.97F
SBA APT/GOLETA SUNNY     81  59  47 SE10      29.94F
*SANTA BARBARA   N/A     87  58  37 CALM      30.02F
*VENTURA         N/A     82  59  46 SW7       29.99S

$$

CAZ044-045-232200-
VENTURA COUNTY VALLEYS


CITY           SKY/WX    TMP DP  RH WIND       PRES   REMARKS
*SIMI VALLEY     N/A     91  58  32 W3        29.89F HX  90
*OJAI            N/A     97  60  29 W3        29.86F HX  97
*FILLMORE        N/A     96  64  35 CALM      29.83F HX  97

$$

CAZ053-232200-
VENTURA COUNTY MOUNTAINS


CITY           SKY/WX    TMP DP  RH WIND       PRES   REMARKS
*LOCKWOOD VLY    N/A     88  28  11 MISG        N/A
*ROSE VALLEY     N/A     93  52  24 MISG        N/A  HX  90

$$

CAZ034-035-036-232200-
CENTRAL COAST AND SANTA YNEZ VALLEY


CITY           SKY/WX    TMP DP  RH WIND       PRES   REMARKS
SAN LUIS OBISP SUNNY     81  57  43 NW22G31   30.03F
SANTA MARIA    SUNNY     81  58  45 NW24      30.03F

CITY           SKY/WX    TMP DP  RH WIND       PRES   REMARKS
*CAL POLY SLO    N/A    N/A N/A N/A S7          N/A
*CAMBRIA         N/A     70  63  78 NE6       29.96S
*LOMPOC          N/A     79  57  47 NW18G25   30.06S
*PISMO BEACH     N/A     74  62  65 W10       30.02F

$$

CAZ037-038-051-232200-
SAN LUIS OBISPO COUNTY INTERIOR AND CUYAMA VALLEY


CITY           SKY/WX    TMP DP  RH WIND       PRES   REMARKS
*CUYAMA          N/A     83  53  34 NE15      29.98S
PASO ROBLES    SUNNY     88  52  29 CALM      30.05F

$$

CAZ032-033-061-232200-
SOUTHERN DESERTS


CITY           SKY/WX    TMP DP  RH WIND       PRES   REMARKS
BLYTHE         MOSUNNY  113  38   8 E8        29.80F HX 106
IMPERIAL       SUNNY    112  33   7 N6        29.77F HX 104
PALM SPRINGS   SUNNY    114  22   4 MISG      29.82F HX 105
THERMAL        SUNNY    115  29   5 VRB3      29.74F HX 106

$$

ELSEWHERE ACROSS THE WESTERN UNITED STATES AND MEXICO


CITY           SKY/WX    TMP DP  RH WIND       PRES   REMARKS
DENVER, CO     PTSUNNY   87  60  40 W17       30.28F
GRAND CANYON,  MOSUNNY   90  37  15 VRB6      30.34F
HONOLULU, HI   MOSUNNY   84  66  54 NE18G26   30.05S
KAHULUI, MAUI  MOSUNNY   88  64  45 E23G30    30.06S
LAKE TAHOE, CA SUNNY     76  34  21 S17G32    30.29S
LAS VEGAS, NV  MOSUNNY  109  16   3 SW15G22   29.89F HX 100
MAMMOTH LAKES, FAIR      84  16   8 S8G28     30.31F
MEXICO CITY, M CLOUDY    70  48  46 W7        30.32S THUNDER
PHOENIX, AZ    PTSUNNY  111  54  15 E9        29.84F HX 109
PORTLAND, OR   LGT RAIN  61  57  87 S7        30.11R
RENO, NV       MOSUNNY   87  35  15 NW18G25   30.14S
SALT LAKE CITY MOSUNNY   99  35  10 S13G22    30.03F HX  93
SAN DIEGO, CA  MOSUNNY   79  60  52 NW13      29.96F
SAN FRANCISCO, MOSUNNY   74  62  66 W16       30.13S
SAN JOSE, CA   MOSUNNY   77  58  51 NW9G16    30.10F
SEATTLE, WA    LGT RAIN  59  57  93 S10       30.05R
TIJUANA, MEX   SUNNY     82  54  36 NW17      29.98F

$$

STATION/POSITION TIME  TEMP    WIND        PRES    VSBY  WAVE
                       AIR SEA DIR/SP/G                  HT/PER
                 (UTC) (F)     (DEG/KT/KT) (MB)    (MI)  (FT/S)
POINT ARGUELLO B NOT AVBL
WEST SANTA BARBA 2100   64 61  310/ 21/ 25 1015.9F         5/ 5
POINT CONCEPTION NOT AVBL
EAST SANTA BARBA 2100   68 67  280/ 14/ 17 1014.6F
SANTA MONICA BAY 2100   71 70  270/ 10/ 12 1014.4F         3/ 6



USA.gov is the U.S. government's official web portal to all federal, state and local government web resources and services.